Location: Charbonni�res
(45.9952°N, 2.9982°E)
Time: 17:41:52
(UTC+00:00)

Cosmos 2263 Rocket - Pass Details

Date: 29 November 2020
Orbit: 823 x 849 km, 71.0° (Epoch: 17 January)

Event Time Altitude Azimuth Distance (km) Brightness Sun altitude
Exits shadow 04:43:45 46° 330° (NNW) 1,135 2.6 -24.3°
Drops below altitude 10° 04:48:26 10° 18° (NNE) 2,482 4.7 -23.5°
Sets 04:50:59 0° 24° (NNE) 3,423 5.6 -23.0°
